SCP
0 0 -0 -0 0 0 0 0 0 0 0 0 0 0 0 0 0 0 0 0 0 0 0 -0 -0 -0 -0 -0 -0 -0 -0 -0 -0 -0 -0 -0 -0 -0 -0 -0 0 0 0
0 0 0 -0 0 0 0 0 0 0 0 0 0 0 0 0 0 0 0 -0 0 0 0 0 -0 -0 -0 -0 -0 -0 -0 -0 -0 -0 -0 -0 -0 -0 -0 -0 0 0 0
0 0 0 -0 0 0 0 0 0 0 0 0 0 0 0 0 0 0 0 0 0 0 0 0 0 0 0 -0 -0 -0 -0 -0 -0 -0 -0 0 0 -0 -0 0 0 0 0
0 0 0 0 0 0 0 0 0 0 0 0 0 0 0 0 0 0 0 0 0 0 0 0 0 0 0 -0 -0 -0 -0 -0 0 -0 0 0 0 0 0 0 0 0 0
0 0 0 0 0 0 0 0 0 0 0 0 0 0 0 0 0 0 0 0 0 0 0 0 0 0 0 0 0 0 0 0 -0 -0 0 0 0 0 0 0 0 0 0
0 0 0 0 0 0 0 0 0 0 0 0 0 0 0 0 0 0 0 0 0 0 0 0 0 0 0 0 0 0 0 0 0 0 0 0 0 0 -0 0 0 0 0
0 0 0 0 0 0 0 0 0 0 0 0 0 0 0 0 0 0 0 0 0 0 0 0 0 0 0 0 0 0 0 0 0 0 0 0 0 -0 -0 0 0 0 0
0 0 0 0 0 0 0 0 0 0 0 0 0 0 0 0 0 0 0 0 0 0 0 0 0 0 0 0 0 0 0 0 0 0 0 0 0 0 0 0 0 0 0
0 0 0 0 0 0 0 0 0 0 0 0 0 0 0 0 0 0 0 0 0 0 0 0 0 0 0 0 0 0 0 0 0 0 0 0 0 0 0 0 0 0 0
0 0 0 0 0 0 0 0 0 0 0 0 0 0 0 0 0 0 0 0 0 0 0 0 0 0 0 0 0 0 0 0 0 0 0 0 0 0 0 0 0 0 0
0 0 0 0 0 0 0 0 0 0 0 0 0 0 0 0 0 0 0 0 0 0 0 0 0 0 0 0 0 0 0 0 0 0 0 0 0 0 0 0 0 0 0
0 0 0 0 0 0 0 0 0 0 0 0 0 0 0 0 0 0 0 0 0 0 0 0 0 0 0 0 0 0 0 0 0 0 0 0 0 0 0 0 0 0 0
0 0 0 0 0 0 0 0 0 0 0 0 0 0 0 0 0 0 0 0 0 0 0 0 0 0 0 0 0 0 0 0 0 0 0 0 0 0 0 0 0 0 0
0 0 0 0 0 0 0 0 0 0 0 0 0 0 0 0 0 0 0 0 0 0 0 0 0 0 0 0 0 -0 0 0 0 0 0 0 0 0 0 0 0 0 0
0 0 0 0 0 0 0 0 0 0 0 0 0 0 0 0 0 0 0 0 0 0 0 0 0 0 0 0 0 -0 0 0 0 0 0 0 0 0 0 0 0 0 0
0 0 0 0 0 0 0 0 0 0 0 0 0 0 0 0 0 0 0 0 0 0 0 0 0 0 0 0 0 0 0 -0 0 0 0 0 0 0 0 0 0 0 0
0 0 0 0 0 0 0 0 0 0 0 0 0 0 0 0 0 0 0 0 0 0 0 0 0 0 0 0 0 0 0 0 0 0 0 0 0 0 0 0 0 0 0
0 0 0 0 0 0 0 0 0 0 0 0 0 0 0 0 0 0 0 0 0 0 0 0 0 0 0 0 0 0 0 0 0 0 0 0 0 0 0 0 0 0 0
0 0 0 0 0 0 0 0 0 0 0 0 0 0 0 0 0 0 0 0 0 0 0 0 0 0 0 0 0 0 0 0 0 0 0 0 0 0 0 0 0 0 0
0 0 0 0 0 0 0 0 0 0 0 0 0 0 0 0 0 0 0 0 0 0 0 0 0 0 0 0 0 0 0 0 0 0 0 0 0 0 0 0 0 0 0
0 0 0 0 0 0 -0 0 0 0 0 0 0 0 0 0 0 0 0 0 0 0 0 0 0 0 0 0 0 0 0 0 0 0 0 0 0 0 0 0 0 0 0
0 0 0 0 -0 0 0 0 0 0 0 0 0 0 0 0 0 0 0 0 0 0 0 0 0 0 0 0 0 0 0 0 0 0 0 0 0 0 0 0 0 0 0
0 0 0 0 0 -0 0 0 0 0 0 0 0 0 0 0 0 0 0 0 0 0 0 0 0 0 0 0 0 0 0 0 0 0 0 0 0 0 0 0 0 0 0
0 0 0 0 0 0 0 0 0 0 0 0 0 0 0 0 0 0 0 0 0 0 0 0 0 0 0 0 0 0 0 0 0 0 0 0 0 0 0 0 0 0 0
0 0 0 0 0 0 0 0 0 0 0 0 0 0 0 0 0 0 0 0 0 0 0 0 0 0 0 0 0 0 0 0 0 0 0 0 0 0 0 0 0 0 0
0 0 0 0 0 0 0 0 0 0 0 0 0 0 0 0 0 0 0 0 0 0 0 0 0 0 0 0 0 0 0 0 0 0 0 0 0 0 0 0 0 0 0
Wind_Speed_500mb
34 33 27 16 15 13 15 14 11 9 10 10 11 14 16 17 18 18 10 8 19 31 27 29 28 32 32 26 23 22 22 24 28 33 48 40 31 30 26 21 23 24 35
32 33 22 20 13 16 17 16 15 14 13 13 13 14 16 17 19 18 12 17 24 35 25 29 22 27 31 29 22 16 15 31 34 41 48 44 38 29 21 13 23 34 39
26 27 26 20 16 18 21 20 19 18 17 17 15 13 14 17 19 17 21 21 24 30 23 22 19 21 24 20 16 22 37 43 38 33 27 33 33 24 19 15 31 32 30
22 22 16 17 22 18 24 23 21 21 22 20 19 16 14 16 19 20 24 22 20 24 22 22 19 20 26 23 27 28 36 31 28 28 27 21 18 16 15 20 23 27 28
21 18 16 20 20 27 14 33 23 24 26 22 19 17 14 15 20 23 28 27 22 18 19 24 18 22 31 31 30 31 29 28 27 25 8 21 27 22 20 18 23 25 24
23 21 19 15 16 23 34 17 38 28 25 21 21 19 17 16 19 27 32 29 26 18 19 21 22 26 33 33 34 31 35 29 26 13 10 17 22 20 19 21 20 16 19
27 27 21 17 18 17 25 23 14 14 22 21 18 20 20 19 21 27 33 29 25 19 20 16 20 21 30 34 36 36 31 26 20 17 16 22 15 13 18 21 20 18 18
32 32 32 23 22 21 14 20 16 29 25 16 18 16 20 21 22 26 33 31 30 18 20 16 19 18 26 33 36 33 32 24 20 16 16 21 17 14 16 13 17 17 21
38 27 28 29 23 19 16 15 12 24 39 24 20 19 18 21 23 25 30 31 29 24 17 19 18 18 24 31 34 32 26 24 19 18 5 8 27 20 10 4 10 14 16
33 31 24 23 22 21 17 14 22 35 27 42 29 20 19 17 20 26 30 31 32 30 22 21 21 22 23 28 29 33 28 23 17 14 7 6 15 18 5 6 10 12 13
28 29 24 22 21 19 15 18 18 27 33 26 27 22 25 19 18 22 30 36 39 36 32 28 23 21 23 27 31 36 27 21 20 13 4 7 11 6 6 8 10 12 15
30 29 27 22 19 19 16 19 24 24 34 33 37 39 31 35 21 22 25 35 40 41 41 31 26 22 24 24 32 30 22 18 13 8 4 7 2 2 6 10 11 15 18
31 30 29 26 22 17 15 11 21 27 33 38 39 39 34 33 33 23 25 35 44 48 46 42 33 24 24 26 26 22 20 15 9 8 6 7 4 3 7 12 14 15 15
29 32 32 28 26 22 17 15 20 24 33 39 40 41 38 31 47 28 29 36 46 51 56 38 36 32 25 25 20 22 18 14 12 10 10 7 5 5 6 7 7 8 16
29 30 30 30 27 22 19 16 15 19 21 34 44 40 38 41 37 38 32 39 44 50 51 44 34 37 33 24 21 21 17 13 8 9 7 4 3 4 6 6 1 5 9
29 31 31 30 27 25 22 20 19 22 23 27 24 34 39 44 45 33 41 41 44 46 42 37 39 38 33 28 24 21 17 10 6 8 8 7 3 3 3 4 5 8 11
30 30 32 31 28 27 23 22 21 19 31 27 24 27 31 39 48 51 57 52 50 47 46 40 37 37 33 30 26 22 15 8 3 3 5 6 5 5 5 6 9 12 16
32 32 32 33 32 29 27 22 22 21 25 27 21 26 35 35 55 64 48 53 54 54 56 46 43 44 39 33 29 21 13 6 3 4 5 6 9 10 8 9 12 16 18
32 30 34 34 34 30 29 20 19 23 23 21 18 23 30 41 58 61 53 43 53 57 61 52 50 49 45 34 29 19 13 7 5 7 7 7 10 11 12 14 17 19 19
33 32 37 36 34 32 29 24 15 18 20 21 18 23 29 47 62 75 64 52 54 62 60 55 52 49 40 33 26 18 17 8 8 9 10 10 8 11 13 14 15 15 9
31 32 35 35 33 30 28 24 10 14 17 20 19 13 17 35 54 69 69 59 53 63 59 55 52 46 41 35 29 24 23 17 15 18 11 13 12 11 14 11 12 13 9
35 34 35 33 26 23 20 22 15 3 11 8 6 6 15 28 52 62 60 62 56 57 54 54 47 49 46 42 40 27 15 18 23 14 11 14 15 15 14 11 13 11 10
34 36 32 27 25 21 23 19 12 5 1 3 3 3 10 13 55 68 58 57 52 56 53 48 43 44 50 46 38 20 14 13 28 16 10 5 6 6 7 7 12 14 16
34 31 29 26 24 22 22 18 12 2 2 6 5 5 6 0 58 50 56 54 47 51 52 49 40 43 41 43 41 35 16 22 16 15 11 8 10 11 12 14 16 20 25
26 29 27 26 25 21 20 18 12 5 7 7 8 4 16 24 13 43 56 52 49 49 49 47 42 37 39 38 40 39 32 24 20 14 15 19 21 20 22 21 25 25 26
27 30 27 23 23 18 18 17 13 8 6 8 10 5 20 24 23 20 27 38 39 39 42 44 44 40 37 36 29 30 34 31 25 24 26 25 25 27 32 30 29 28 24
Wind_Direction_500mb
354 345 310 297 267 241 228 232 220 219 208 189 179 179 176 167 176 165 152 126 125 123 116 121 129 122 129 132 136 124 106 96 120 105 103 107 120 110 114 96 76 78 102
351 347 309 279 303 247 234 231 227 218 212 202 187 184 186 180 178 170 150 128 121 119 125 143 151 144 138 139 134 122 104 108 111 121 114 113 109 111 115 103 81 88 91
352 349 339 277 290 248 231 232 231 229 212 204 192 190 188 179 178 167 148 137 142 135 150 164 171 152 151 150 142 109 115 107 106 112 122 128 124 125 107 108 94 95 90
348 349 330 329 290 285 238 230 236 231 220 207 202 195 196 182 183 175 161 145 155 147 142 134 144 146 144 123 118 116 117 110 118 115 111 124 127 120 108 89 104 117 109
330 337 344 305 300 283 290 230 220 227 221 210 206 202 202 192 185 184 168 153 163 152 143 125 131 131 140 130 124 114 113 107 106 114 108 107 98 101 105 133 111 109 123
319 319 338 341 320 286 263 271 234 225 219 219 211 209 205 201 191 181 174 160 177 180 134 143 128 132 142 141 132 129 118 123 123 116 99 82 110 121 113 93 99 128 92
339 326 310 327 333 318 285 274 269 194 189 203 208 220 212 209 198 187 184 175 176 182 154 146 136 139 143 144 141 125 122 127 133 116 98 94 100 95 88 99 101 93 86
339 335 327 310 294 323 333 273 219 209 222 198 188 207 210 207 202 198 190 184 184 205 175 149 136 140 147 150 147 136 128 135 140 141 133 131 110 98 114 97 96 74 63
327 333 331 329 316 290 306 265 245 219 205 195 208 201 204 208 209 201 196 194 196 201 193 166 155 146 153 154 158 152 144 144 149 151 171 148 137 143 166 90 53 62 62
322 331 329 329 333 312 286 267 216 213 199 202 195 210 212 205 212 214 209 208 208 205 197 172 158 158 152 153 157 156 156 155 170 157 147 129 156 187 207 67 74 64 63
322 328 332 326 329 324 285 264 253 219 211 188 208 232 234 223 220 225 219 214 208 209 194 175 168 156 153 147 150 157 161 155 177 187 208 224 110 73 73 67 59 62 67
323 325 330 324 323 324 316 258 246 230 206 215 236 226 222 220 227 237 229 218 208 208 207 184 174 165 148 153 149 161 164 158 177 181 193 217 309 40 69 67 66 73 80
328 324 326 321 313 306 305 297 259 234 230 225 224 215 215 213 216 226 234 223 207 208 174 178 175 158 153 148 151 151 151 158 154 135 119 180 212 113 93 84 86 72 62
329 328 326 325 316 302 289 276 245 245 232 233 231 231 229 213 209 228 235 226 213 210 190 188 176 162 160 153 149 144 142 133 124 120 98 103 103 87 89 94 68 28 350
323 325 326 327 324 310 285 270 258 251 239 234 239 237 236 222 227 234 239 226 219 213 220 185 189 179 165 161 159 147 152 139 102 81 77 90 90 63 48 58 7 276 282
323 323 325 324 324 315 299 280 263 243 254 243 251 235 235 230 220 214 236 230 218 211 205 209 198 184 181 171 169 166 161 145 96 67 57 49 42 25 23 9 348 322 314
322 321 321 326 327 321 307 291 269 265 251 260 255 247 227 226 220 226 222 222 221 213 206 213 187 178 180 186 186 185 176 159 153 61 24 24 25 10 358 341 328 315 321
317 317 319 320 322 324 316 303 275 268 254 255 261 248 226 224 215 212 218 214 218 206 210 198 193 188 192 195 190 191 193 197 251 303 294 322 325 313 307 309 310 309 315
316 316 317 322 319 319 318 308 282 264 261 258 273 260 240 234 218 208 210 217 214 211 202 199 196 201 201 196 194 194 198 221 256 264 312 303 307 303 303 301 292 300 308
317 316 315 320 321 321 320 319 284 257 252 261 277 263 291 244 215 209 215 209 209 208 207 203 199 203 206 198 196 199 217 254 270 292 296 304 310 306 313 298 280 299 335
319 313 317 322 325 324 321 320 272 231 249 254 274 270 292 216 201 206 210 204 203 209 205 200 199 201 193 193 192 199 217 245 262 269 255 266 258 260 274 285 283 297 334
314 317 317 327 333 327 319 318 322 234 228 255 286 335 287 222 193 201 202 194 196 206 200 198 196 193 198 196 198 200 213 218 221 215 260 250 258 244 264 290 294 298 286
310 317 324 330 334 338 327 323 312 221 101 54 341 285 320 263 180 198 198 182 189 206 199 193 196 197 194 197 209 195 175 187 175 178 192 266 261 225 220 275 278 283 290
310 322 329 331 332 347 336 332 332 280 24 42 37 41 270 45 169 165 177 177 181 192 195 195 199 198 200 204 206 199 185 184 175 171 193 209 242 236 268 281 280 284 281
319 329 336 333 333 345 348 341 344 11 37 74 49 59 168 198 143 144 172 180 188 191 191 197 201 194 198 206 207 205 196 194 209 190 203 222 245 267 275 284 282 277 285
329 329 336 340 346 351 355 339 353 345 38 86 91 122 167 183 202 200 148 181 181 184 189 197 205 204 198 203 209 210 210 216 228 228 230 238 247 253 267 269 272 282 283
Wind_Speed_850mb
34 33 27 16 15 13 15 14 11 9 10 10 11 14 16 17 18 18 10 8 19 31 27 29 28 32 32 26 23 22 22 24 28 33 48 40 31 30 26 21 23 24 35
32 33 22 20 13 16 17 16 15 14 13 13 13 14 16 17 19 18 12 17 24 35 25 29 22 27 31 29 22 16 15 31 34 41 48 44 38 29 21 13 23 34 39
26 27 26 20 16 18 21 20 19 18 17 17 15 13 14 17 19 17 21 21 24 30 23 22 19 21 24 20 16 22 37 43 38 33 27 33 33 24 19 15 31 32 30
22 22 16 17 22 18 24 23 21 21 22 20 19 16 14 16 19 20 24 22 20 24 22 22 19 20 26 23 27 28 36 31 28 28 27 21 18 16 15 20 23 27 28
21 18 16 20 20 27 14 33 23 24 26 22 19 17 14 15 20 23 28 27 22 18 19 24 18 22 31 31 30 31 29 28 27 25 8 21 27 22 20 18 23 25 24
23 21 19 15 16 23 34 17 38 28 25 21 21 19 17 16 19 27 32 29 26 18 19 21 22 26 33 33 34 31 35 29 26 13 10 17 22 20 19 21 20 16 19
27 27 21 17 18 17 25 23 14 14 22 21 18 20 20 19 21 27 33 29 25 19 20 16 20 21 30 34 36 36 31 26 20 17 16 22 15 13 18 21 20 18 18
32 32 32 23 22 21 14 20 16 29 25 16 18 16 20 21 22 26 33 31 30 18 20 16 19 18 26 33 36 33 32 24 20 16 16 21 17 14 16 13 17 17 21
38 27 28 29 23 19 16 15 12 24 39 24 20 19 18 21 23 25 30 31 29 24 17 19 18 18 24 31 34 32 26 24 19 18 5 8 27 20 10 4 10 14 16
33 31 24 23 22 21 17 14 22 35 27 42 29 20 19 17 20 26 30 31 32 30 22 21 21 22 23 28 29 33 28 23 17 14 7 6 15 18 5 6 10 12 13
28 29 24 22 21 19 15 18 18 27 33 26 27 22 25 19 18 22 30 36 39 36 32 28 23 21 23 27 31 36 27 21 20 13 4 7 11 6 6 8 10 12 15
30 29 27 22 19 19 16 19 24 24 34 33 37 39 31 35 21 22 25 35 40 41 41 31 26 22 24 24 32 30 22 18 13 8 4 7 2 2 6 10 11 15 18
31 30 29 26 22 17 15 11 21 27 33 38 39 39 34 33 33 23 25 35 44 48 46 42 33 24 24 26 26 22 20 15 9 8 6 7 4 3 7 12 14 15 15
29 32 32 28 26 22 17 15 20 24 33 39 40 41 38 31 47 28 29 36 46 51 56 38 36 32 25 25 20 22 18 14 12 10 10 7 5 5 6 7 7 8 16
29 30 30 30 27 22 19 16 15 19 21 34 44 40 38 41 37 38 32 39 44 50 51 44 34 37 33 24 21 21 17 13 8 9 7 4 3 4 6 6 1 5 9
29 31 31 30 27 25 22 20 19 22 23 27 24 34 39 44 45 33 41 41 44 46 42 37 39 38 33 28 24 21 17 10 6 8 8 7 3 3 3 4 5 8 11
30 30 32 31 28 27 23 22 21 19 31 27 24 27 31 39 48 51 57 52 50 47 46 40 37 37 33 30 26 22 15 8 3 3 5 6 5 5 5 6 9 12 16
32 32 32 33 32 29 27 22 22 21 25 27 21 26 35 35 55 64 48 53 54 54 56 46 43 44 39 33 29 21 13 6 3 4 5 6 9 10 8 9 12 16 18
32 30 34 34 34 30 29 20 19 23 23 21 18 23 30 41 58 61 53 43 53 57 61 52 50 49 45 34 29 19 13 7 5 7 7 7 10 11 12 14 17 19 19
33 32 37 36 34 32 29 24 15 18 20 21 18 23 29 47 62 75 64 52 54 62 60 55 52 49 40 33 26 18 17 8 8 9 10 10 8 11 13 14 15 15 9
31 32 35 35 33 30 28 24 10 14 17 20 19 13 17 35 54 69 69 59 53 63 59 55 52 46 41 35 29 24 23 17 15 18 11 13 12 11 14 11 12 13 9
35 34 35 33 26 23 20 22 15 3 11 8 6 6 15 28 52 62 60 62 56 57 54 54 47 49 46 42 40 27 15 18 23 14 11 14 15 15 14 11 13 11 10
34 36 32 27 25 21 23 19 12 5 1 3 3 3 10 13 55 68 58 57 52 56 53 48 43 44 50 46 38 20 14 13 28 16 10 5 6 6 7 7 12 14 16
34 31 29 26 24 22 22 18 12 2 2 6 5 5 6 0 58 50 56 54 47 51 52 49 40 43 41 43 41 35 16 22 16 15 11 8 10 11 12 14 16 20 25
26 29 27 26 25 21 20 18 12 5 7 7 8 4 16 24 13 43 56 52 49 49 49 47 42 37 39 38 40 39 32 24 20 14 15 19 21 20 22 21 25 25 26
27 30 27 23 23 18 18 17 13 8 6 8 10 5 20 24 23 20 27 38 39 39 42 44 44 40 37 36 29 30 34 31 25 24 26 25 25 27 32 30 29 28 24
Wind_Direction_850mb
354 345 310 297 267 241 228 232 220 219 208 189 179 179 176 167 176 165 152 126 125 123 116 121 129 122 129 132 136 124 106 96 120 105 103 107 120 110 114 96 76 78 102
351 347 309 279 303 247 234 231 227 218 212 202 187 184 186 180 178 170 150 128 121 119 125 143 151 144 138 139 134 122 104 108 111 121 114 113 109 111 115 103 81 88 91
352 349 339 277 290 248 231 232 231 229 212 204 192 190 188 179 178 167 148 137 142 135 150 164 171 152 151 150 142 109 115 107 106 112 122 128 124 125 107 108 94 95 90
348 349 330 329 290 285 238 230 236 231 220 207 202 195 196 182 183 175 161 145 155 147 142 134 144 146 144 123 118 116 117 110 118 115 111 124 127 120 108 89 104 117 109
330 337 344 305 300 283 290 230 220 227 221 210 206 202 202 192 185 184 168 153 163 152 143 125 131 131 140 130 124 114 113 107 106 114 108 107 98 101 105 133 111 109 123
319 319 338 341 320 286 263 271 234 225 219 219 211 209 205 201 191 181 174 160 177 180 134 143 128 132 142 141 132 129 118 123 123 116 99 82 110 121 113 93 99 128 92
339 326 310 327 333 318 285 274 269 194 189 203 208 220 212 209 198 187 184 175 176 182 154 146 136 139 143 144 141 125 122 127 133 116 98 94 100 95 88 99 101 93 86
339 335 327 310 294 323 333 273 219 209 222 198 188 207 210 207 202 198 190 184 184 205 175 149 136 140 147 150 147 136 128 135 140 141 133 131 110 98 114 97 96 74 63
327 333 331 329 316 290 306 265 245 219 205 195 208 201 204 208 209 201 196 194 196 201 193 166 155 146 153 154 158 152 144 144 149 151 171 148 137 143 166 90 53 62 62
322 331 329 329 333 312 286 267 216 213 199 202 195 210 212 205 212 214 209 208 208 205 197 172 158 158 152 153 157 156 156 155 170 157 147 129 156 187 207 67 74 64 63
322 328 332 326 329 324 285 264 253 219 211 188 208 232 234 223 220 225 219 214 208 209 194 175 168 156 153 147 150 157 161 155 177 187 208 224 110 73 73 67 59 62 67
323 325 330 324 323 324 316 258 246 230 206 215 236 226 222 220 227 237 229 218 208 208 207 184 174 165 148 153 149 161 164 158 177 181 193 217 309 40 69 67 66 73 80
328 324 326 321 313 306 305 297 259 234 230 225 224 215 215 213 216 226 234 223 207 208 174 178 175 158 153 148 151 151 151 158 154 135 119 180 212 113 93 84 86 72 62
329 328 326 325 316 302 289 276 245 245 232 233 231 231 229 213 209 228 235 226 213 210 190 188 176 162 160 153 149 144 142 133 124 120 98 103 103 87 89 94 68 28 350
323 325 326 327 324 310 285 270 258 251 239 234 239 237 236 222 227 234 239 226 219 213 220 185 189 179 165 161 159 147 152 139 102 81 77 90 90 63 48 58 7 276 282
323 323 325 324 324 315 299 280 263 243 254 243 251 235 235 230 220 214 236 230 218 211 205 209 198 184 181 171 169 166 161 145 96 67 57 49 42 25 23 9 348 322 314
322 321 321 326 327 321 307 291 269 265 251 260 255 247 227 226 220 226 222 222 221 213 206 213 187 178 180 186 186 185 176 159 153 61 24 24 25 10 358 341 328 315 321
317 317 319 320 322 324 316 303 275 268 254 255 261 248 226 224 215 212 218 214 218 206 210 198 193 188 192 195 190 191 193 197 251 303 294 322 325 313 307 309 310 309 315
316 316 317 322 319 319 318 308 282 264 261 258 273 260 240 234 218 208 210 217 214 211 202 199 196 201 201 196 194 194 198 221 256 264 312 303 307 303 303 301 292 300 308
317 316 315 320 321 321 320 319 284 257 252 261 277 263 291 244 215 209 215 209 209 208 207 203 199 203 206 198 196 199 217 254 270 292 296 304 310 306 313 298 280 299 335
319 313 317 322 325 324 321 320 272 231 249 254 274 270 292 216 201 206 210 204 203 209 205 200 199 201 193 193 192 199 217 245 262 269 255 266 258 260 274 285 283 297 334
314 317 317 327 333 327 319 318 322 234 228 255 286 335 287 222 193 201 202 194 196 206 200 198 196 193 198 196 198 200 213 218 221 215 260 250 258 244 264 290 294 298 286
310 317 324 330 334 338 327 323 312 221 101 54 341 285 320 263 180 198 198 182 189 206 199 193 196 197 194 197 209 195 175 187 175 178 192 266 261 225 220 275 278 283 290
310 322 329 331 332 347 336 332 332 280 24 42 37 41 270 45 169 165 177 177 181 192 195 195 199 198 200 204 206 199 185 184 175 171 193 209 242 236 268 281 280 284 281
319 329 336 333 333 345 348 341 344 11 37 74 49 59 168 198 143 144 172 180 188 191 191 197 201 194 198 206 207 205 196 194 209 190 203 222 245 267 275 284 282 277 285
329 329 336 340 346 351 355 339 353 345 38 86 91 122 167 183 202 200 148 181 181 184 189 197 205 204 198 203 209 210 210 216 228 228 230 238 247 253 267 269 272 282 283